• In Belgium
  • List of Countries
  • For 7 days
  • Water Temperature
  • Satellite Maps
  • Weather Map
  • Weather Widgets
  • user-avatar
    Login

    Hourly Weather Sambor

    Today, 17 July, Tuesday

    Time Temperature Precipitation Wind Pressure Humidity
    00:00 +15°C° 0 mm 2 mps 730 mmHg 96%
    01:00 +15°C° 0 mm 2 mps 729 mmHg 96%
    02:00 +15°C° 0 mm 2 mps 729 mmHg 96%
    03:00 +15°C° 0 mm 2 mps 729 mmHg 96%
    04:00 +15°C° 0 mm 2 mps 729 mmHg 97%
    05:00 +15°C° 0 mm 2 mps 729 mmHg 97%
    06:00 +16°C° 0 mm 2 mps 729 mmHg 96%
    07:00 +17°C° 0 mm 3 mps 729 mmHg 94%
    08:00 +18°C° 0 mm 3 mps 729 mmHg 93%
    09:00 +19°C° 0.2 mm 3 mps 729 mmHg 90%
    10:00 +19°C° 0.2 mm 3 mps 729 mmHg 88%
    11:00 +20°C° 0.2 mm 4 mps 728 mmHg 86%
    12:00 +21°C° 0.4 mm 4 mps 728 mmHg 83%
    13:00 +22°C° 0.4 mm 4 mps 728 mmHg 80%
    14:00 +23°C° 0.4 mm 4 mps 728 mmHg 78%
    15:00 +22°C° 0.5 mm 4 mps 728 mmHg 80%
    16:00 +22°C° 0.5 mm 4 mps 727 mmHg 82%
    17:00 +22°C° 0.5 mm 4 mps 727 mmHg 84%
    18:00 +21°C° 0.2 mm 3 mps 727 mmHg 87%
    19:00 +20°C° 0.2 mm 3 mps 727 mmHg 91%
    20:00 +19°C° 0.2 mm 3 mps 727 mmHg 94%
    21:00 +19°C° 0 mm 3 mps 727 mmHg 95%
    22:00 +18°C° 0 mm 3 mps 727 mmHg 96%
    23:00 +18°C° 0 mm 3 mps 727 mmHg 96%

    Tomorrow, 18 July, Wednesday

    Time Temperature Precipitation Wind Pressure Humidity
    00:00 +18°C° 0.1 mm 3 mps 727 mmHg 97%
    01:00 +18°C° 0.1 mm 3 mps 727 mmHg 97%
    02:00 +18°C° 0.1 mm 3 mps 727 mmHg 97%
    03:00 +18°C° 0.4 mm 3 mps 727 mmHg 97%
    04:00 +18°C° 0.4 mm 3 mps 727 mmHg 97%
    05:00 +18°C° 0.4 mm 3 mps 727 mmHg 97%
    06:00 +18°C° 0.9 mm 3 mps 727 mmHg 97%
    07:00 +18°C° 0.9 mm 3 mps 727 mmHg 96%
    08:00 +18°C° 0.9 mm 3 mps 727 mmHg 96%
    09:00 +19°C° 0.4 mm 2 mps 727 mmHg 95%
    10:00 +19°C° 0.4 mm 2 mps 727 mmHg 93%
    11:00 +20°C° 0.4 mm 2 mps 727 mmHg 92%
    12:00 +21°C° 0.5 mm 2 mps 727 mmHg 90%
    13:00 +21°C° 0.5 mm 2 mps 727 mmHg 89%
    14:00 +23°C° 0.5 mm 2 mps 727 mmHg 87%
    15:00 +23°C° 0.6 mm 2 mps 727 mmHg 87%
    16:00 +24°C° 0.6 mm 2 mps 727 mmHg 87%
    17:00 +24°C° 0.6 mm 2 mps 727 mmHg 88%
    18:00 +23°C° 1.3 mm 2 mps 727 mmHg 90%
    19:00 +23°C° 1.3 mm 2 mps 727 mmHg 92%
    20:00 +21°C° 1.3 mm 2 mps 728 mmHg 94%
    21:00 +20°C° 0.8 mm 2 mps 728 mmHg 94%
    22:00 +20°C° 0.8 mm 2 mps 728 mmHg 95%
    23:00 +19°C° 0.8 mm 2 mps 728 mmHg 96%

    Day after tomorrow, 19 July, Thursday

    Time Temperature Precipitation Wind Pressure Humidity
    00:00 +19°C° 0.3 mm 2 mps 728 mmHg 97%
    01:00 +19°C° 0.3 mm 2 mps 729 mmHg 97%
    02:00 +19°C° 0.3 mm 2 mps 729 mmHg 98%
    03:00 +19°C° 0.2 mm 2 mps 729 mmHg 98%
    04:00 +19°C° 0.2 mm 2 mps 729 mmHg 98%
    05:00 +20°C° 0.2 mm 2 mps 729 mmHg 98%
    06:00 +20°C° 0.1 mm 3 mps 730 mmHg 97%
    07:00 +20°C° 0.1 mm 3 mps 730 mmHg 96%
    08:00 +21°C° 0.1 mm 4 mps 730 mmHg 95%
    09:00 +21°C° 0.2 mm 4 mps 730 mmHg 93%
    10:00 +22°C° 0.2 mm 4 mps 730 mmHg 90%
    11:00 +23°C° 0.2 mm 4 mps 730 mmHg 88%
    12:00 +23°C° 0.2 mm 5 mps 730 mmHg 86%
    13:00 +23°C° 0.2 mm 5 mps 731 mmHg 84%
    14:00 +23°C° 0.2 mm 5 mps 731 mmHg 82%
    15:00 +25°C° 0.2 mm 5 mps 731 mmHg 82%
    16:00 +25°C° 0.2 mm 5 mps 731 mmHg 82%
    17:00 +25°C° 0.2 mm 4 mps 731 mmHg 82%
    18:00 +23°C° 0.2 mm 4 mps 731 mmHg 84%
    19:00 +22°C° 0.2 mm 4 mps 731 mmHg 87%
    20:00 +21°C° 0.2 mm 3 mps 732 mmHg 89%
    21:00 +20°C° 0.1 mm 3 mps 732 mmHg 91%
    22:00 +20°C° 0.1 mm 3 mps 732 mmHg 93%
    23:00 +19°C° 0.1 mm 3 mps 732 mmHg 95%

    20 July, Friday

    Time Temperature Precipitation Wind Pressure Humidity
    00:00 +19°C° 0.1 mm 3 mps 732 mmHg 96%
    01:00 +18°C° 0.1 mm 3 mps 732 mmHg 96%
    02:00 +18°C° 0.1 mm 3 mps 732 mmHg 97%
    03:00 +18°C° 0 mm 3 mps 732 mmHg 97%
    04:00 +18°C° 0 mm 3 mps 732 mmHg 97%
    05:00 +18°C° 0 mm 3 mps 732 mmHg 97%
    06:00 +18°C° 0 mm 3 mps 733 mmHg 96%
    07:00 +19°C° 0 mm 3 mps 733 mmHg 95%
    08:00 +19°C° 0 mm 3 mps 733 mmHg 94%
    09:00 +20°C° 0 mm 4 mps 733 mmHg 89%
    10:00 +21°C° 0 mm 4 mps 733 mmHg 85%
    11:00 +22°C° 0 mm 4 mps 733 mmHg 81%
    12:00 +23°C° 0 mm 4 mps 733 mmHg 75%
    13:00 +25°C° 0 mm 4 mps 733 mmHg 69%
    14:00 +26°C° 0 mm 5 mps 733 mmHg 63%
    15:00 +26°C° 0 mm 4 mps 733 mmHg 64%
    16:00 +26°C° 0 mm 4 mps 733 mmHg 65%
    17:00 +26°C° 0 mm 4 mps 733 mmHg 66%
    18:00 +25°C° 0 mm 4 mps 733 mmHg 72%
    19:00 +22°C° 0 mm 3 mps 733 mmHg 78%
    20:00 +21°C° 0 mm 2 mps 733 mmHg 84%
    21:00 +20°C° 0 mm 2 mps 733 mmHg 87%
    22:00 +19°C° 0 mm 2 mps 733 mmHg 89%
    23:00 +18°C° 0 mm 2 mps 733 mmHg 92%

    21 July, Saturday

    Time Temperature Precipitation Wind Pressure Humidity
    00:00 +17°C° 0 mm 2 mps 733 mmHg 92%
    01:00 +17°C° 0 mm 2 mps 733 mmHg 93%
    02:00 +17°C° 0 mm 2 mps 733 mmHg 94%
    03:00 +16°C° 0 mm 2 mps 733 mmHg 94%
    04:00 +16°C° 0 mm 2 mps 733 mmHg 94%
    05:00 +16°C° 0 mm 2 mps 733 mmHg 95%
    06:00 +18°C° 0 mm 2 mps 733 mmHg 90%
    07:00 +19°C° 0 mm 2 mps 733 mmHg 86%
    08:00 +21°C° 0 mm 2 mps 734 mmHg 81%
    09:00 +23°C° 0 mm 2 mps 734 mmHg 76%
    10:00 +25°C° 0 mm 2 mps 734 mmHg 70%
    11:00 +26°C° 0 mm 3 mps 734 mmHg 65%
    12:00 +26°C° 0.1 mm 2 mps 733 mmHg 63%
    13:00 +27°C° 0.1 mm 2 mps 733 mmHg 60%
    14:00 +28°C° 0.1 mm 2 mps 733 mmHg 58%
    15:00 +27°C° 0.1 mm 2 mps 733 mmHg 59%
    16:00 +27°C° 0 mm 2 mps 733 mmHg 61%
    17:00 +27°C° 0 mm 2 mps 733 mmHg 62%
    18:00 +25°C° 0 mm 2 mps 733 mmHg 68%
    19:00 +24°C° 0 mm 1 mps 732 mmHg 75%
    20:00 +22°C° 0 mm 1 mps 732 mmHg 81%
    21:00 +21°C° 0 mm 1 mps 732 mmHg 83%
    22:00 +20°C° 0 mm 1 mps 732 mmHg 85%
    23:00 +20°C° 0 mm 1 mps 732 mmHg 87%

    22 July, Sunday

    Time Temperature Precipitation Wind Pressure Humidity
    00:00 +19°C° 0 mm 1 mps 732 mmHg 88%
    01:00 +19°C° 0 mm 1 mps 732 mmHg 89%
    02:00 +18°C° 0 mm 1 mps 732 mmHg 91%
    03:00 +18°C° 0 mm 1 mps 732 mmHg 91%
    04:00 +18°C° 0 mm 1 mps 732 mmHg 91%
    05:00 +18°C° 0 mm 1 mps 731 mmHg 92%
    06:00 +20°C° 0 mm 1 mps 731 mmHg 87%
    07:00 +22°C° 0 mm 1 mps 731 mmHg 83%
    08:00 +23°C° 0 mm 1 mps 731 mmHg 78%
    09:00 +24°C° 0.5 mm 2 mps 731 mmHg 76%
    10:00 +25°C° 0.5 mm 2 mps 731 mmHg 73%
    11:00 +26°C° 0.5 mm 2 mps 731 mmHg 71%
    12:00 +26°C° 0.5 mm 3 mps 731 mmHg 69%
    13:00 +27°C° 0.5 mm 3 mps 731 mmHg 67%
    14:00 +27°C° 0.5 mm 3 mps 731 mmHg 65%
    15:00 +27°C° 0.5 mm 3 mps 730 mmHg 68%
    16:00 +27°C° 0.5 mm 3 mps 730 mmHg 70%
    17:00 +26°C° 0.5 mm 3 mps 730 mmHg 73%
    18:00 +25°C° 0.7 mm 2 mps 730 mmHg 77%
    19:00 +24°C° 0.7 mm 2 mps 730 mmHg 82%
    20:00 +21°C° 0.7 mm 2 mps 730 mmHg 86%
    21:00 +20°C° 0.3 mm 2 mps 730 mmHg 87%
    22:00 +20°C° 0.3 mm 2 mps 731 mmHg 89%
    23:00 +19°C° 0.3 mm 2 mps 731 mmHg 90%
    Show more